Location: Carella
(45.8167°N, 9.2667°E)
Time: 15:36:14
(UTC+00:00)

STARLINK-1110 - Pass Details

Date: 30 March 2020
Orbit: 548 x 551 km, 53.0° (Epoch: 03 June)

Event Time Altitude Azimuth Distance (km) Brightness Sun altitude
Rises 19:15:47 0° 298° (WNW) 2,727 9.0 -15.4°
Reaches altitude 10° 19:18:05 10° 293° (WNW) 1,829 7.7 -15.7°
Maximum altitude 19:22:03 45° 220° (SW) 756 4.4 -16.4°
Enters shadow 19:24:11 24° 160° (SSE) 1,171 4.9 -16.7°
